Flag for U.S.A. Weather past 2 weeks in Cedar Rapids, Iowa, U.S.A.

Now
61 °F

Light rain. Fog.


Feels Like: 61 °F
Forecast: 60 / 80 °F
Wind: 12 mph from Southeast

Location: Cedar Rapids Municipal Airport

Current Time: Jul 25, 2014 at 8:01:11 AM

Latest Report: Jul 25, 2014 at 6:52 AM


Visibility: 4 mi

Pressure: 30.00 "Hg

Humidity: 93%

Dew point: 59 °F

Location of Cedar RapidsLocation

Historic Weather in Cedar Rapids — Graph

°F

Cedar Rapids temperature yesterday

Maximum temperature yesterday: 77 °F (at 2:52 PM)
Minimum temperature yesterday: 58 °F (at 5:52 AM)
Average temperature yesterday: 68 °F

Past Weeks' High & Low Weather Summary

 TemperatureHumidityPressure
High87 °F (Jul 22, 12:04 PM)100% (Jul 12, 6:52 AM)30.19 "Hg (Jul 12, 6:52 AM)
Low49 °F (Jul 16, 5:52 AM)8% (Jul 17, 1:52 PM)29.86 "Hg (Jul 12, 6:52 PM)
Average70 °F71%30.02 "Hg
* Reported Jul 10 6:52 AM — Jul 25 6:52 AM, Cedar Rapids, Weather by CustomWeather, © 2014

Note: Actual official high and low records may vary slightly from our data, if they occured in-between our weather recording intervals... More about our weather records

Advertising

Cedar Rapids weather history for previous 24 hours

 ConditionsComfort  
Time TempWeatherWind HumidityBarometerVisibility
6:52 AM
Jul 25
61 °FLight rain. Fog.12 mph93%30.00 "Hg4 mi
5:52 AM62 °FThunderstorms. Fog.7 mph90%30.04 "Hg4 mi
4:52 AM63 °FLight rain. Passing clouds.7 mph84%30.00 "Hg8 mi
3:52 AM64 °FPassing clouds.6 mph78%29.99 "Hg10 mi
2:52 AM64 °FClear.8 mph75%29.94 "Hg10 mi
1:52 AM63 °FClear.7 mph81%29.97 "Hg10 mi
12:52 AM64 °FClear.6 mph81%30.00 "Hg10 mi
11:52 PM
Jul 24
64 °FClear.3 mph81%29.99 "Hg10 mi
10:52 PM67 °FClear.8 mph73%29.97 "Hg10 mi
9:52 PM68 °FClear.7 mph70%29.96 "Hg10 mi
8:52 PM69 °FSunny.7 mph73%29.96 "Hg10 mi
7:52 PM70 °FSunny.8 mph76%30.03 "Hg7 mi
6:52 PM71 °FPassing clouds.6 mph71%30.08 "Hg10 mi
5:52 PM74 °FSunny.9 mph62%30.06 "Hg8 mi
4:52 PM76 °FScattered clouds.8 mph56%30.07 "Hg10 mi
3:52 PM77 °FScattered clouds.8 mph52%30.07 "Hg10 mi
2:52 PM77 °FSunny.9 mph54%30.06 "Hg10 mi
1:52 PM76 °FSunny.7 mph56%30.10 "Hg10 mi
12:52 PM75 °FSunny.8 mph58%30.14 "Hg10 mi
11:52 AM73 °FSunny.7 mph57%30.16 "Hg10 mi
10:52 AM71 °FSunny.7 mph61%30.17 "Hg10 mi
9:52 AM70 °FSunny.8 mph57%30.16 "Hg10 mi
8:52 AM66 °FSunny.8 mph65%30.16 "Hg10 mi
Weather by CustomWeather, © 2014

See weather overviewHow to use our weather pages